Wind_Speed
6 1 7 13 10 13 8 8 10 6 9 12 16 15 9 15 13 10 8 9 10 6 10 24 26 28 28 28 26 24 20 18 20 21 19 18 17 17 15 15 12 10 12 16
4 7 13 12 13 10 8 9 7 5 8 12 7 16 6 18 12 13 12 11 15 15 7 18 27 28 32 32 31 26 22 21 23 23 21 21 19 16 19 18 14 12 12 14
7 16 7 9 15 14 16 6 6 7 1 7 3 2 1 2 4 6 7 10 13 19 11 14 22 27 28 31 31 27 24 22 24 23 20 20 16 11 14 14 14 14 9 13
7 17 10 12 8 7 5 6 6 4 3 3 3 5 5 6 12 7 9 12 13 14 12 12 21 25 29 30 32 27 24 24 24 26 20 21 18 16 17 16 14 16 14 13
10 8 10 7 8 3 10 7 6 3 1 3 4 2 4 3 11 17 14 12 14 16 16 16 22 30 29 31 34 29 25 26 27 26 22 21 18 14 14 14 14 16 16 15
11 7 6 7 10 5 5 2 7 5 4 3 7 5 5 6 19 7 9 13 12 16 18 19 25 30 30 30 31 31 29 28 28 26 25 22 17 15 11 14 18 18 18 18
7 14 8 5 8 15 4 7 4 4 4 6 7 2 9 9 13 12 16 13 15 11 14 16 17 24 29 31 30 33 32 32 30 28 24 23 19 16 12 11 17 19 18 19
6 13 6 3 9 13 6 9 6 5 3 7 2 6 7 14 13 6 10 10 6 6 5 15 18 23 31 33 32 31 35 34 33 31 29 24 20 17 13 11 14 22 17 18
7 11 18 5 9 10 6 3 8 6 1 2 3 8 8 5 4 6 12 7 5 4 8 11 19 26 31 33 34 34 36 34 36 33 31 28 24 20 17 15 12 14 11 7
5 9 9 17 3 2 8 4 1 2 2 5 4 6 5 6 7 8 12 11 8 11 14 14 17 25 32 35 34 34 36 38 38 36 33 30 27 23 21 15 17 12 12 10
4 7 7 3 3 8 1 2 1 5 5 6 2 6 7 11 6 12 13 20 17 14 14 15 18 30 34 31 34 32 32 32 32 34 34 30 27 25 22 18 15 12 13 12
1 3 4 8 8 7 7 8 3 4 7 4 5 7 8 11 12 17 18 18 13 6 13 18 18 29 30 32 32 34 34 34 35 36 34 31 26 25 24 22 20 16 14 17
6 3 4 9 8 6 5 3 3 3 3 6 4 7 2 5 8 8 16 15 9 6 10 12 13 15 27 29 30 30 32 34 35 33 32 30 26 26 25 23 22 20 17 16
7 4 4 3 7 5 7 8 5 5 2 3 5 7 7 5 8 9 9 10 6 10 8 15 16 15 22 26 29 30 30 33 36 33 32 31 29 27 26 24 22 21 21 18
4 2 4 5 8 7 6 7 9 6 6 3 10 6 9 8 15 17 13 6 4 9 9 18 18 17 20 24 27 27 29 33 37 35 33 33 29 28 27 24 23 21 21 22
4 4 5 5 6 8 16 5 8 8 9 5 6 6 2 7 4 7 15 12 8 7 9 14 17 17 21 26 29 28 29 31 35 32 34 33 28 29 28 25 23 19 18 18
3 1 3 5 3 10 12 1 4 3 7 7 7 12 9 5 9 17 10 6 6 8 11 12 13 15 24 27 30 29 31 31 32 34 34 32 29 27 26 21 20 19 17 15
5 2 4 5 1 7 5 2 2 4 5 13 13 15 8 6 4 10 4 13 12 10 17 13 13 17 18 24 27 27 28 30 31 33 33 25 26 26 20 18 17 14 13 11
8 3 3 4 5 11 14 7 6 3 4 14 12 16 9 3 6 7 7 5 2 7 7 14 23 24 24 27 27 27 29 30 30 30 29 24 24 21 17 16 14 12 12 11
2 6 6 3 4 6 3 2 6 3 4 13 15 14 15 17 3 3 7 5 2 6 14 16 23 27 28 28 29 29 26 26 25 27 28 24 20 15 14 14 14 14 13 10
5 4 4 5 5 5 5 11 5 2 5 7 11 14 15 9 12 6 10 8 5 4 18 25 28 27 27 30 31 28 27 26 26 23 22 20 16 15 13 13 13 12 10 9
2 4 3 3 3 4 11 5 1 1 2 2 3 7 13 13 13 2 8 8 5 5 8 23 21 21 30 32 31 24 25 25 22 20 20 19 18 17 15 13 12 11 11 11
1 2 3 1 4 4 6 5 5 5 5 2 4 7 8 15 5 6 10 9 9 7 12 15 21 21 25 31 32 26 29 27 25 22 20 19 18 16 15 15 14 12 11 11
4 3 3 3 4 8 8 8 6 6 4 3 4 2 9 11 11 2 12 16 11 9 9 10 15 18 20 30 32 32 28 27 25 23 21 20 20 17 16 16 15 15 13 12
7 4 4 5 9 14 14 13 8 7 8 5 6 3 5 8 17 9 5 8 7 6 7 7 15 16 24 30 29 27 27 26 24 24 23 19 17 16 15 15 16 17 17 13
5 8 7 6 6 5 8 6 3 6 11 8 7 6 3 3 13 14 13 11 10 4 4 6 4 15 18 29 27 28 27 27 27 24 21 20 18 18 18 19 19 15 16 13
Wind_Direction
253 122 239 244 218 241 256 268 270 212 179 188 218 231 205 182 196 218 168 175 164 224 189 183 175 177 178 178 177 176 175 171 168 168 169 169 175 170 170 176 172 178 167 159
354 245 242 249 261 249 256 242 284 231 179 184 216 241 185 183 195 206 197 187 184 196 207 161 161 161 171 174 178 176 178 172 171 171 171 172 169 178 184 189 172 184 173 165
190 246 261 228 264 271 273 262 281 270 271 185 119 333 344 281 283 223 220 189 191 189 195 162 165 163 166 172 179 179 180 175 178 174 167 174 174 167 181 197 190 191 176 175
237 264 246 269 245 213 238 243 233 298 80 211 138 280 241 222 243 233 233 206 203 202 191 168 168 173 170 176 179 180 180 174 180 184 182 175 180 170 185 187 187 185 183 178
245 282 290 278 254 278 242 235 254 264 237 29 327 93 265 74 249 236 235 202 205 200 190 179 178 175 175 174 179 179 177 175 177 185 188 187 192 193 187 192 190 189 191 188
240 242 227 238 284 241 274 337 40 43 85 352 250 153 272 188 227 237 232 204 205 192 188 189 177 175 174 175 177 180 178 181 180 187 191 197 200 199 170 194 198 200 196 197
278 266 270 259 301 296 138 60 353 343 354 234 311 165 238 236 237 203 221 200 208 194 182 185 178 172 171 174 176 181 183 186 186 185 192 200 200 188 189 188 204 200 206 212
211 290 183 211 196 236 218 151 160 219 211 272 314 257 256 229 213 170 217 82 86 227 213 187 184 175 174 175 177 182 186 189 193 191 193 202 199 194 199 205 206 205 212 227
177 254 261 216 245 142 230 170 186 136 167 11 240 284 300 81 32 209 196 131 107 207 246 208 187 180 178 178 180 182 188 194 196 194 194 197 201 203 209 208 201 198 211 221
268 270 245 276 129 293 166 173 130 5 158 276 290 274 238 89 167 179 179 171 169 205 208 192 189 185 183 182 180 185 191 195 198 198 197 198 205 209 209 215 202 214 198 203
196 188 269 23 167 218 350 252 123 130 144 180 230 271 226 194 164 144 173 177 197 241 217 191 185 185 186 177 180 184 188 194 197 200 200 200 204 205 209 211 208 213 212 199
335 207 240 212 272 221 182 204 146 131 271 231 165 264 253 174 191 168 176 184 208 242 179 173 175 180 180 179 178 182 183 191 199 202 203 201 200 204 211 215 220 221 223 203
322 350 356 348 346 1 78 93 123 142 107 226 145 266 337 141 167 222 177 202 190 142 141 152 160 178 180 179 179 181 183 189 196 201 202 205 207 208 213 216 220 221 224 216
48 60 117 212 268 268 304 330 335 114 108 256 211 281 302 232 190 212 220 205 183 163 158 177 175 180 181 179 177 179 181 188 194 199 202 202 207 212 213 213 215 220 230 230
67 299 27 284 277 325 328 344 332 316 237 179 283 201 267 245 201 202 200 183 237 184 171 172 177 175 167 173 175 178 182 187 193 194 202 209 211 216 218 218 222 229 237 233
344 282 348 305 307 329 313 278 265 274 287 286 307 291 294 324 275 205 201 183 193 197 172 165 168 163 167 170 174 178 185 189 190 193 201 209 210 217 220 224 225 229 234 234
222 181 346 258 344 330 297 152 92 347 21 332 8 295 292 282 195 225 206 190 177 164 168 153 168 169 170 170 171 180 189 189 190 198 204 209 209 217 225 218 228 230 243 245
212 223 174 254 205 245 254 305 343 4 2 8 340 335 305 279 196 198 214 167 160 159 171 166 163 169 173 170 171 181 187 191 193 199 204 208 211 217 208 219 220 224 222 219
179 162 249 206 204 272 290 310 309 44 17 12 353 354 337 11 37 20 354 337 144 135 168 161 164 164 168 174 181 186 186 193 196 200 206 199 197 201 205 211 212 209 212 215
349 208 190 192 209 244 337 60 302 195 271 350 354 356 359 322 85 250 290 302 251 153 146 152 162 158 162 173 183 181 186 193 201 208 210 200 202 211 212 214 207 198 207 226
338 356 210 249 242 268 357 308 308 179 283 328 358 344 346 346 298 186 173 241 273 284 160 169 162 159 168 173 176 174 180 190 202 207 206 201 210 215 214 201 206 215 214 205
300 309 300 325 226 280 353 321 60 88 278 254 307 320 336 331 303 298 262 193 221 202 126 168 157 160 169 175 173 175 186 199 201 201 200 202 207 204 199 201 200 198 204 215
333 169 275 219 253 271 294 239 219 183 202 242 275 309 326 335 275 301 316 287 214 165 126 151 155 156 162 169 177 175 195 195 193 193 200 199 200 197 193 193 191 204 224 242
294 180 223 357 306 270 277 267 228 207 231 214 233 308 329 327 329 261 262 287 310 8 33 122 137 144 147 169 180 189 186 182 181 187 189 180 175 181 190 207 213 218 235 247
251 221 224 250 263 275 285 239 217 215 239 220 268 230 274 316 320 295 222 269 307 21 26 38 139 163 157 172 181 179 177 184 183 175 173 180 190 193 204 217 225 235 245 257
209 237 222 228 255 218 274 273 209 231 254 211 203 264 272 277 296 302 272 238 250 295 359 309 44 169 168 170 174 178 182 178 176 178 187 192 195 208 221 228 233 246 252 252
Height
776 795 807 792 789 783 789 793 787 770 760 774 777 773 770 768 768 773 774 774 771 774 774 778 781 786 792 796 798 801 803 806 809 813 815 818 820 823 824 826 829 830 830 832
791 804 778 771 772 780 784 790 781 764 751 769 771 773 769 764 765 765 766 769 769 772 772 776 780 784 788 792 796 799 802 805 809 812 814 817 820 823 824 826 829 830 830 830
800 778 762 774 775 779 776 785 775 775 755 758 768 788 780 774 770 763 762 760 764 763 770 774 777 780 785 789 792 796 801 804 808 813 815 817 819 822 824 825 828 829 829 831
785 759 769 770 776 771 789 755 759 761 778 800 764 815 787 779 771 764 760 760 759 761 762 768 772 777 780 785 791 794 799 802 807 812 814 816 817 819 821 823 825 827 829 830
781 769 771 774 766 751 770 746 755 755 771 781 782 798 779 779 775 758 752 753 751 753 756 762 765 769 776 781 786 791 797 801 805 810 814 815 817 819 819 821 823 825 827 829
767 748 754 757 745 745 741 750 765 778 792 818 783 790 785 786 757 751 746 744 742 745 749 753 762 766 772 779 784 788 793 800 803 807 811 814 816 817 818 819 821 822 826 828
769 759 744 741 759 742 749 786 824 821 826 822 783 789 776 746 736 732 733 734 737 744 746 752 759 763 769 775 780 785 790 796 801 804 808 811 815 817 817 817 818 821 823 826
793 788 751 735 751 759 762 780 820 827 833 813 778 794 767 722 713 722 726 744 743 746 748 747 752 758 763 770 776 781 785 792 798 802 804 808 812 815 815 816 816 818 821 824
791 778 729 734 729 744 757 775 764 798 797 813 790 763 734 720 726 726 730 737 741 743 746 745 750 753 760 765 770 775 781 787 793 797 802 806 809 812 814 815 816 818 820 820
755 778 738 728 724 726 741 737 778 803 809 816 799 774 773 742 741 726 729 735 733 715 722 735 742 749 754 758 766 773 777 781 787 793 798 802 805 808 811 813 814 816 818 819
744 761 755 736 745 749 751 760 760 778 795 812 817 792 734 728 725 727 725 723 725 715 714 721 732 740 747 755 762 770 776 779 785 790 794 799 803 805 807 810 813 814 816 818
745 762 771 750 729 725 733 744 760 791 788 793 790 783 717 720 720 720 718 719 717 710 710 716 728 738 744 749 758 762 769 775 780 785 789 794 799 803 805 807 809 812 813 814
757 772 792 769 749 734 745 737 744 762 781 783 796 782 717 719 724 719 720 718 717 715 716 722 731 736 739 745 753 760 766 771 776 782 786 790 793 798 802 805 806 808 810 810
754 780 788 805 785 766 762 750 742 760 786 779 777 756 734 731 727 720 716 712 715 717 718 720 727 731 739 744 750 757 763 769 773 778 782 785 788 792 796 800 803 804 807 808
770 787 782 779 768 757 758 754 749 755 755 766 750 751 735 721 721 710 706 711 711 714 711 712 719 727 736 743 748 754 760 764 769 774 778 781 784 788 792 796 799 801 803 804
778 789 780 778 760 757 756 749 746 741 741 736 737 740 711 706 714 708 702 702 707 708 705 707 713 722 729 737 742 748 755 760 764 770 774 778 781 785 788 791 796 796 798 798
779 784 791 792 763 761 763 745 744 741 738 740 754 733 713 709 709 710 703 700 704 705 706 708 715 718 724 731 735 743 750 755 761 766 771 774 779 781 783 788 791 792 793 796
778 782 789 795 773 793 745 731 728 735 733 736 729 713 708 701 694 692 700 697 699 699 700 703 707 717 723 728 733 741 748 753 758 763 767 772 776 778 780 785 787 788 790 792
766 779 789 792 794 760 745 738 736 742 750 741 740 726 708 702 699 703 705 701 701 697 699 698 705 711 720 725 731 740 747 751 756 760 765 769 772 776 780 782 784 786 787 790
761 766 776 784 788 787 750 736 728 727 756 747 738 734 727 712 725 718 710 705 702 696 693 697 703 706 715 722 729 736 743 750 754 758 763 768 770 773 776 779 782 784 786 787
781 778 778 778 778 760 754 739 724 756 760 750 745 739 736 737 723 699 700 701 696 692 687 695 699 703 713 719 725 732 739 745 750 756 760 764 768 772 775 778 781 783 784 784
788 793 788 780 771 769 751 742 746 757 750 750 747 744 738 733 719 700 700 696 692 693 691 695 700 706 709 717 724 732 737 741 748 753 758 762 765 769 772 776 779 781 782 782
792 785 785 785 776 764 756 752 748 747 748 748 744 740 736 730 721 710 712 708 698 692 690 696 699 706 711 718 723 730 735 741 746 752 758 762 766 768 771 773 776 778 780 781
781 779 783 778 764 758 751 746 741 742 742 740 739 735 729 727 724 720 713 720 717 707 702 699 701 707 712 716 722 726 734 741 745 750 754 759 763 768 770 772 773 774 775 778
780 777 775 772 759 752 745 739 734 735 735 735 734 732 732 725 715 713 712 717 719 710 704 705 703 708 711 717 724 730 735 741 746 751 756 760 763 767 770 771 772 772 773 774
769 769 773 769 750 749 739 725 728 732 729 728 730 730 725 722 721 717 712 712 716 714 709 710 709 710 715 718 726 731 736 741 747 751 754 757 760 764 767 767 769 769 770 771